Two Harbors, MN

11:43 AM CST on December 11, 2019 (GMT -0600)
Helgeson

Weather History for KTWM - November, 2019

Change the Weather History Date:

Tuesday, November 19, 2019

  Actual Average Record
Temperature  
Mean Temperature 32 °F -  
Max Temperature 35 °F 37 °F 54 °F (1953)
Min Temperature 28 °F 25 °F -4 °F (2018)
Degree Days  
Heating Degree Days 34    
Moisture  
Dew Point 25 °F    
Average Humidity 76    
Maximum Humidity 81    
Minimum Humidity 74    
Precipitation  
Precipitation 0.00 in - - ()
Sea Level Pressure  
Sea Level Pressure 29.76 in    
Wind  
Wind Speed 0 mph ()    
Max Wind Speed 7 mph    
Max Gust Speed -    
Visibility 5.3 miles    
Events      
Averages and records for this station are not official NWS values.
T = Trace of Precipitation, MM = Missing Value Source: Averaged Metar Reports

Daily Weather History Graph

Daily Weather History Graph

Search for Another Location

Airport or City:

Astronomy

Nov. 19, 2019 Rise Set
Actual Time 7:15 AM CST 4:28 PM CST
Civil Twilight 6:42 AM CST 5:01 PM CST
Nautical Twilight 6:05 AM CST 5:39 PM CST
Astronomical Twilight 5:28 AM CST 6:15 PM CST
Moon 11:28 PM CST (11/19) 1:24 PM CST (11/19)
Length of Visible Light 10h 19m
Length of Day
9h 12m
Waning Gibbous, 51% of the Moon is Illuminated
Nov 19
Waning Gibbous
Nov 19
Last Quarter
Nov 26
New
Dec 4
First Quarter
Dec 11
Full

Hourly Weather History & Observations

Time (CST) Temp. Windchill Dew Point Humidity Pressure Visibility Wind Dir Wind Speed Gust Speed Precip Events Conditions
12:07 AM 28.4 °F - 21.2 °F 74% 29.68 in 10.0 mi Calm Calm - N/A   Overcast
12:50 AM 28.4 °F - 21.2 °F 74% 29.67 in 10.0 mi Calm Calm - N/A   Overcast
1:06 AM 28.4 °F - 21.2 °F 74% 29.67 in 10.0 mi Calm Calm - N/A   Overcast
1:26 AM 28.4 °F - 21.2 °F 74% 29.67 in 10.0 mi Calm Calm - N/A   Overcast
1:45 AM 28.4 °F - 21.2 °F 74% 29.67 in 10.0 mi Calm Calm - N/A   Overcast
2:13 AM 28.4 °F - 21.2 °F 74% 29.67 in 10.0 mi Calm Calm - N/A   Overcast
2:32 AM 28.4 °F - 21.2 °F 74% 29.67 in 10.0 mi Calm Calm - N/A   Overcast
2:53 AM 28.4 °F - 21.2 °F 74% 29.67 in 10.0 mi Calm Calm - N/A   Overcast
3:06 AM 28.4 °F - 21.2 °F 74% 29.67 in 7.0 mi Calm Calm - N/A   Overcast
3:33 AM 28.4 °F - 21.2 °F 74% 29.67 in 10.0 mi Calm Calm - N/A   Overcast
3:51 AM 30.2 °F - 23.0 °F 75% 29.67 in 7.0 mi Calm Calm - N/A   Overcast
4:25 AM 30.2 °F - 23.0 °F 75% 29.67 in 7.0 mi Calm Calm - N/A   Overcast
4:51 AM 30.2 °F - 23.0 °F 75% 29.67 in 7.0 mi Calm Calm - N/A   Overcast
5:06 AM 30.2 °F - 23.0 °F 75% 29.67 in 7.0 mi Calm Calm - N/A   Overcast
5:26 AM 30.2 °F - 23.0 °F 75% 29.68 in 7.0 mi Calm Calm - N/A   Overcast
6:06 AM 30.2 °F - 23.0 °F 75% 29.68 in 7.0 mi Calm Calm - N/A   Overcast
6:26 AM 30.2 °F - 23.0 °F 75% 29.69 in 7.0 mi Calm Calm - N/A   Overcast
6:55 AM 30.2 °F - 23.0 °F 75% 29.70 in 5.0 mi Calm Calm - N/A   Haze
7:31 AM 30.2 °F - 23.0 °F 75% 29.71 in 7.0 mi Calm Calm - N/A   Overcast
7:45 AM 30.2 °F - 23.0 °F 75% 29.71 in 7.0 mi Calm Calm - N/A   Overcast
8:06 AM 30.2 °F - 23.0 °F 75% 29.72 in 4.0 mi Calm Calm - N/A   Haze
8:34 AM 30.2 °F - 24.8 °F 80% 29.72 in 4.0 mi Calm Calm - N/A   Haze
8:52 AM 30.2 °F - 24.8 °F 80% 29.72 in 2.5 mi Calm Calm - N/A   Haze
9:11 AM 30.2 °F - 24.8 °F 80% 29.72 in 1.8 mi Calm Calm - N/A   Haze
9:31 AM 30.2 °F - 24.8 °F 80% 29.72 in 1.5 mi Calm Calm - N/A   Haze
9:46 AM 30.2 °F - 24.8 °F 80% 29.73 in 1.0 mi Calm Calm - N/A   Haze
10:06 AM 32.0 °F - 24.8 °F 75% 29.73 in 1.5 mi Calm Calm - N/A   Haze
10:32 AM 32.0 °F - 24.8 °F 75% 29.74 in 1.8 mi Calm Calm - N/A   Haze
10:46 AM 32.0 °F - 26.6 °F 80% 29.74 in 1.5 mi Calm Calm - N/A   Haze
11:06 AM 32.0 °F - 26.6 °F 80% 29.75 in 1.2 mi Calm Calm - N/A   Haze
11:26 AM 32.0 °F - 26.6 °F 80% 29.75 in 1.0 mi Calm Calm - N/A   Haze
11:51 AM 32.0 °F - 26.6 °F 80% 29.76 in 1.0 mi Calm Calm - N/A   Haze
12:17 PM 32.0 °F - 26.6 °F 80% 29.76 in 1.0 mi Calm Calm - N/A   Haze
12:45 PM 32.0 °F - 26.6 °F 80% 29.76 in 1.8 mi Calm Calm - N/A   Haze
1:11 PM 33.8 °F 30.8 °F 26.6 °F 75% 29.76 in 2.5 mi SW 3.5 mph - N/A   Haze
1:26 PM 33.8 °F - 26.6 °F 75% 29.76 in 2.0 mi Calm Calm - N/A   Haze
1:45 PM 33.8 °F - 26.6 °F 75% 29.77 in 2.0 mi Calm Calm - N/A   Haze
2:06 PM 33.8 °F - 26.6 °F 75% 29.77 in 2.5 mi Calm Calm - N/A   Haze
2:34 PM 33.8 °F - 26.6 °F 75% 29.78 in 3.0 mi Calm Calm - N/A   Haze
2:59 PM 33.8 °F - 26.6 °F 75% 29.79 in 3.0 mi Calm Calm - N/A   Haze
3:25 PM 33.8 °F 30.8 °F 26.6 °F 75% 29.80 in 4.0 mi SW 3.5 mph - N/A   Haze
3:48 PM 33.8 °F - 26.6 °F 75% 29.81 in 4.0 mi Calm Calm - N/A   Haze
4:02 PM 33.8 °F - 26.6 °F 75% 29.81 in 4.0 mi Calm Calm - N/A   Haze
4:25 PM 33.8 °F - 26.6 °F 75% 29.82 in 4.0 mi Calm Calm - N/A   Haze
4:45 PM 33.8 °F 30.8 °F 26.6 °F 75% 29.82 in 5.0 mi WSW 3.5 mph - N/A   Haze
5:25 PM 33.8 °F 30.8 °F 26.6 °F 75% 29.83 in 5.0 mi WSW 3.5 mph - N/A   Haze
5:45 PM 33.8 °F - 26.6 °F 75% 29.83 in 4.0 mi Calm Calm - N/A   Haze
6:15 PM 33.8 °F - 26.6 °F 75% 29.83 in 4.0 mi Calm Calm - N/A   Haze
6:57 PM 33.8 °F - 26.6 °F 75% 29.84 in 3.0 mi Calm Calm - N/A   Haze
7:25 PM 33.8 °F - 26.6 °F 75% 29.85 in 3.0 mi Calm Calm - N/A   Haze
8:00 PM 33.8 °F - 26.6 °F 75% 29.85 in 3.0 mi Calm Calm - N/A   Haze
8:33 PM 32.0 °F - 26.6 °F 80% 29.87 in 3.0 mi Calm Calm - N/A   Haze
8:45 PM 32.0 °F - 26.6 °F 80% 29.87 in 3.0 mi Calm Calm - N/A   Haze
9:25 PM 33.8 °F - 26.6 °F 75% 29.88 in 5.0 mi Calm Calm - N/A   Haze
9:45 PM 35.6 °F 30.7 °F 28.4 °F 75% 29.88 in 10.0 mi West 5.8 mph - N/A   Overcast
10:06 PM 35.6 °F 29.9 °F 28.4 °F 75% 29.89 in 10.0 mi West 6.9 mph - N/A   Overcast
10:25 PM 35.6 °F 31.7 °F 28.4 °F 75% 29.90 in 7.0 mi WNW 4.6 mph - N/A   Drizzle
10:52 PM 33.8 °F 29.6 °F 28.4 °F 81% 29.90 in 10.0 mi West 4.6 mph - N/A   Mostly Cloudy
11:05 PM 35.6 °F 31.7 °F 28.4 °F 75% 29.91 in 10.0 mi West 4.6 mph - N/A   Mostly Cloudy
11:35 PM 35.6 °F 30.7 °F 28.4 °F 75% 29.91 in 10.0 mi WNW 5.8 mph - N/A   Overcast